User: anonymous   Login
Location: Unspecified
(0.0000°N, 0.0000°E)
Time: 05:49:16
(UTC+00:00)
Language:

AO-92 - Orbit

View from above orbital plane
View from above orbital plane
View from above satellite
View from above satellite

Ground track
Ground track

The orbit data is extracted from the following two-line orbital elements,

1 43137U 18004AC  18324.74480071  .00001175  00000-0  52979-4 0  9990
2 43137  97.5160  27.7419 0007816 272.9441  87.0901 15.23034665 47538
Epoch (UTC): 20 November 2018 17:52:30
Eccentricity: 0.0007816
inclination: 97.5160°
perigee height: 491 km
apogee height: 502 km
right ascension of ascending node: 27.7419°
argument of perigee: 272.9441°
revolutions per day: 15.23034665
mean anomaly at epoch: 87.0901°
orbit number at epoch: 4753

The dashed part of the orbit path shows where the satellite is in the earth's shadow,  

DLR